DW8102 Weather Reports


Display with metric or nautical units.
time (UTC)temp
F
wind
direction
speed
MPH
gust
MPH
rain 1hr
in
rain 24hr
in
rain mn
in
humidity
%
barometer
mb
20260831053032 0 0.0 0.0 0.00 0.08 0.08 1003.4
20260831051507 0 0.0 0.0 0.00 0.08 0.08 1003.4
20260831050003 0 0.0 0.0 0.00 0.08 0.08 1003.2
20260831044600 0 0.0 0.0 0.00 0.08 0.08 1003.0
20260831043055 0 0.0 0.0 0.00 0.08 0.08 1002.9
20260831041553 0 0.0 0.0 0.00 0.08 0.08 1002.8
20260831040049 0 0.0 0.0 0.00 0.08 0.08 1002.7
20260831034544 0 0.0 0.0 0.00 0.08 0.08 1002.6
20260831033049 0 0.0 0.0 0.00 0.08 0.08 1002.4
20260831031537 0 0.0 0.0 0.00 0.08 0.08 1002.5
20260831030032 0 0.0 0.0 0.00 0.08 0.08 1002.4
20260831024532 62 266 0.0 3.0 0.03 0.08 0.08 97 1002.3
20260831023036 62 285 0.0 3.0 0.06 0.08 0.08 97 1002.2
20260831021539 62 283 0.0 3.0 0.06 0.08 0.08 97 1002.0
20260831020057 62 305 1.0 3.0 0.06 0.08 0.08 97 1002.0
20260831014533 62 215 0.0 0.0 0.04 0.06 0.06 97 1001.8
20260831013033 61 215 0.0 0.0 0.01 0.02 0.02 97 1001.8
20260831011529 62 190 0.0 1.0 0.01 0.02 0.02 97 1001.8
20260831010028 62 190 0.0 0.0 0.01 0.02 0.02 97 1001.7
20260831004527 62 190 0.0 0.0 0.00 0.02 0.02 97 1001.7
20260831003027 62 190 0.0 0.0 0.00 0.02 0.02 97 1001.7
20260831001529 62 188 0.0 0.0 0.00 0.02 0.02 96 1001.8
20260831000026 62 188 0.0 0.0 0.00 0.02 0.02 96 1001.8
20260830234538 61 188 0.0 0.0 0.00 0.02 0.02 96 1001.8
20260830233027 61 185 0.0 0.0 0.00 0.02 0.02 96 1001.8
20260830231528 61 186 0.0 0.0 0.00 0.02 0.02 96 1001.7
20260830230024 61 186 0.0 0.0 0.01 0.02 0.02 96 1001.7
20260830224524 61 186 0.0 0.0 0.01 0.02 0.02 95 1001.7
20260830223023 61 186 0.0 0.0 0.01 0.02 0.02 96 1001.8
20260830221523 61 186 0.0 0.0 0.01 0.02 0.02 95 1001.7
20260830220023 61 186 0.0 0.0 0.00 0.01 0.01 95 1001.8
20260830214522 61 186 0.0 0.0 0.00 0.01 0.01 95 1001.8
20260830213034 61 187 0.0 0.0 0.00 0.01 0.01 95 1001.8
20260830211524 61 186 0.0 0.0 0.00 0.02 0.01 95 1001.8
20260830210042 61 186 0.0 0.0 0.00 0.02 0.01 94 1001.8
20260830204516 62 185 0.0 0.0 0.00 0.02 0.01 94 1001.8
20260830203018 62 186 0.0 0.0 0.00 0.02 0.01 93 1001.9
20260830201513 62 186 0.0 0.0 0.00 0.11 0.01 93 1001.9
20260830200011 62 195 0.0 0.0 0.00 0.11 0.01 93 1001.9
20260830194509 62 195 0.0 0.0 0.00 0.11 0.01 93 1002.1
20260830193016 62 196 0.0 0.0 0.00 0.11 0.01 93 1002.1
20260830191516 62 196 0.0 0.0 0.00 0.11 0.01 93 1002.1
20260830190008 62 195 0.0 0.0 0.00 0.11 0.01 92 1002.2
20260830184506 62 195 0.0 0.0 0.00 0.11 0.01 92 1002.2
20260830183005 62 195 0.0 0.0 0.00 0.11 0.01 91 1002.3
20260830181505 63 195 0.0 0.0 0.00 0.11 0.01 91 1002.4
20260830180011 63 195 0.0 0.0 0.00 0.11 0.01 90 1002.3
20260830174503 63 195 0.0 0.0 0.00 0.11 0.01 90 1002.4
20260830173002 63 187 0.0 0.0 0.00 0.11 0.01 90 1002.5
20260830171503 64 181 0.0 0.0 0.00 0.11 0.01 90 1002.5
20260830170005 64 185 0.0 0.0 0.00 0.11 0.01 90 1002.5
20260830164602 64 170 0.0 0.0 0.00 0.11 0.01 90 1002.6
20260830164502 64 172 0.0 0.0 0.00 0.11 0.01 90 1002.6
20260830163100 64 172 0.0 0.0 0.00 0.11 0.01 90 1002.7
20260830161614 64 173 0.0 0.0 0.00 0.11 0.01 90 1002.7
20260830160058 64 155 0.0 0.0 0.00 0.11 0.01 90 1002.7
20260830154556 64 148 0.0 0.0 0.00 0.11 0.01 90 1002.9
20260830153100 64 128 0.0 2.0 0.00 0.11 0.01 92 1003.0
20260830151558 63 131 0.0 1.0 0.00 0.11 0.01 93 1003.1
20260830150054 63 139 0.0 2.0 0.01 0.11 0.01 92 1003.2
20260830144558 63 152 0.0 1.0 0.01 0.11 0.01 92 1003.3
20260830143104 63 136 0.0 2.0 0.01 0.11 0.01 92 1003.4
20260830141551 64 148 0.0 4.0 0.01 0.11 0.01 90 1003.4
20260830140049 64 139 1.0 6.0 0.00 0.10 0.00 89 1003.4
20260830134549 65 149 0.0 3.0 0.00 0.10 0.00 87 1003.4
20260830133043 65 153 0.0 4.0 0.00 0.10 0.00 85 1003.4
20260830131543 66 147 1.0 3.0 0.00 0.10 0.00 81 1003.4
20260830130053 67 138 1.0 5.0 0.00 0.10 0.00 78 1003.3
20260830124539 67 160 0.0 9.0 0.00 0.10 0.00 78 1003.3
20260830123040 67 162 1.0 10.0 0.00 0.10 0.00 78 1003.3
20260830121537 67 167 2.0 7.0 0.00 0.10 0.00 77 1003.4
20260830120038 67 146 1.0 8.0 0.00 0.10 0.00 76 1003.4
20260830114602 68 153 1.0 4.0 0.00 0.10 0.00 74 1003.6
20260830113030 68 177 2.0 5.0 0.00 0.10 0.00 72 1003.5
20260830111529 68 195 0.0 2.0 0.00 0.10 0.10 72 1003.6
20260830110030 69 186 0.0 5.0 0.00 0.10 0.10 71 1003.6
20260830104528 68 156 0.0 7.0 0.00 0.10 0.10 73 1003.6
20260830103025 68 198 2.0 4.0 0.00 0.10 0.10 75 1003.7
20260830101522 67 198 0.0 3.0 0.00 0.10 0.10 75 1003.8
20260830100022 67 191 0.0 5.0 0.00 0.10 0.10 75 1003.8
20260830094521 67 185 0.0 6.0 0.00 0.10 0.10 77 1003.8
20260830093019 66 195 2.0 8.0 0.00 0.10 0.10 79 1003.9
20260830091525 66 209 2.0 7.0 0.00 0.10 0.10 79 1003.9
20260830090021 67 179 1.0 8.0 0.00 0.10 0.10 79 1003.9
20260830084515 66 188 0.0 4.0 0.00 0.10 0.10 82 1003.8
20260830083012 65 150 1.0 6.0 0.00 0.10 0.10 83 1003.9
20260830081513 65 163 1.0 8.0 0.00 0.10 0.10 84 1003.8
20260830080012 64 139 0.0 7.0 0.00 0.10 0.10 86 1003.8
20260830074513 64 188 1.0 9.0 0.00 0.10 0.10 86 1003.8
20260830073012 64 180 1.0 6.0 0.00 0.10 0.10 87 1003.8
20260830071513 63 207 2.0 8.0 0.00 0.10 0.10 88 1003.9
20260830070015 63 192 3.0 9.0 0.00 0.10 0.10 90 1003.9
20260830064509 62 204 0.0 6.0 0.00 0.10 0.10 93 1003.8
20260830063009 61 143 2.0 4.0 0.00 0.10 0.10 93 1003.8
20260830061507 61 206 0.0 3.0 0.00 0.10 0.10 94 1003.8
20260830060007 61 192 0.0 3.0 0.00 0.10 0.10 95 1003.8
20260830054506 61 198 0.0 4.0 0.00 0.10 0.10 95 1003.6